Regional Weather Roundup
Issued by NWS Little Rock, AR

Home | Current Version | Previous Version | Text Only | Print | Product List | Glossary On
Versions: 1 2 3 4 5 6 7 8 9 10 11 12 13 14 15 16 17 18 19 20 21 22 23 24 25 26 27 28 29 30 31 32 33 34 35 36 37 38 39 40 41 42 43 44 45 46 47 48 49 50
377
ASUS44 KLZK 150510
RWRLZK

WEATHER ROUNDUP FOR ARKANSAS
NATIONAL WEATHER SERVICE LITTLE ROCK AR
1200 AM CDT THU APR 15 2021

NOTE: "FAIR" INDICATES FEW OR NO CLOUDS BELOW 12,000 FEET WITH NO
SIGNIFICANT WEATHER AND/OR OBSTRUCTIONS TO VISIBILITY.

ARZ001-003-010-029-150600-
NORTHWEST ARKANSAS

CITY           SKY/WX    TMP DP  RH WIND       PRES   REMARKS
FAYETTEVILLE   LGT RAIN  53  42  66 CALM      30.12F
FORT SMITH     LGT RAIN  57  53  86 NW5       30.12R
HARRISON       CLOUDY    53  34  48 NW6       30.12S
BENTONVILLE    CLOUDY    53  38  56 N9        30.14F
ROGERS         CLOUDY    52  36  54 N7        30.13F
SILOAM SPGS    CLOUDY    52  41  66 CALM      30.13S
HIGHFILL       CLOUDY    52  41  66 N6        30.13F
$$

ARZ004-005-016-150600-
NORTH CENTRAL ARKANSAS

CITY           SKY/WX    TMP DP  RH WIND       PRES   REMARKS
BATESVILLE     CLOUDY    53  48  83 CALM      30.07S
FLIPPIN        CLOUDY    55  38  52 NW3       30.12R
MTN HOME       CLOUDY    53  34  48 CALM      30.10R
$$

ARZ040-041-150600-
WEST CENTRAL ARKANSAS

CITY           SKY/WX    TMP DP  RH WIND       PRES   REMARKS
MENA           CLOUDY    54  54 100 CALM      30.08R
MOUNT IDA      LGT RAIN  54  52  93 VRB3      30.05F
$$

ARZ009-017-025-026-028-150600-
NORTHEAST ARKANSAS

CITY           SKY/WX    TMP DP  RH WIND       PRES   REMARKS
JONESBORO      MOCLDY    53  50  89 CALM      30.06S
NEWPORT        MOCLDY    56  49  77 W3        30.08R
WALNUT RIDGE   MOCLDY    55  48  77 W3        30.06S
BLYTHEVILLE    MOCLDY    54  48  80 CALM      30.05F
$$

ARZ032-043-044-150600-
LITTLE ROCK METRO AREA

CITY           SKY/WX    TMP DP  RH WIND       PRES   REMARKS
LITTLE ROCK    CLOUDY    55  51  86 CALM      30.07F
N LTL ROCK NWS   N/A     53  49  85 CALM      30.09F
NLR AIRPORT    MOCLDY    52  48  87 CALM      30.06S
BENTON         MOCLDY    54  52  94 CALM      30.06S
CONWAY         CLOUDY    55  55 100 CALM      30.07F
$$

ARZ022-023-033-042-150600-
REMAINDER OF CENTRAL ARKANSAS

CITY           SKY/WX    TMP DP  RH WIND       PRES   REMARKS
SEARCY         CLOUDY    53  51  93 CALM      30.08F
HOT SPRINGS    LGT RAIN  54  51  90 N3        30.05F
RUSSELLVILLE   CLOUDY    55  32  41 CALM      30.08R
CLINTON        CLOUDY    52  48  87 CALM      30.08S
$$

ARZ036-150600-
EAST ARKANSAS

CITY           SKY/WX    TMP DP  RH WIND       PRES   REMARKS
WEST MEMPHIS   MOCLDY    54  50  86 CALM      30.05S
$$

ARZ050-053-066-070-073-150600-
SOUTHWEST ARKANSAS

CITY           SKY/WX    TMP DP  RH WIND       PRES   REMARKS
ARKADELPHIA    LGT RAIN  55  53  93 VRB3      30.04F
TEXARKANA      CLOUDY    57  52  83 VRB5      30.04F
EL DORADO      CLOUDY    55  52  89 N6        30.04F
DE QUEEN       CLOUDY    56  54  93 E5        30.02F
$$

ARZ056-057-069-150600-
SOUTHEAST ARKANSAS

CITY           SKY/WX    TMP DP  RH WIND       PRES   REMARKS
PINE BLUFF     CLOUDY    56  48  74 CALM      30.07S
STUTTGART      CLOUDY    55  53  93 NW6       30.07S
MONTICELLO     MOCLDY    55  53  93 VRB3      30.05S

$$






USA.gov is the U.S. government's official web portal to all federal, state and local government web resources and services.